Regional Weather Roundup
Issued by NWS

Home | Current Version | Previous Version | Graphics & Text | Print | Product List | Glossary On
Versions: 1 2 3 4 5 6 7 8 9 10 11 12 13 14 15 16 17 18 19 20 21 22 23 24 25 26 27 28 29 30 31 32 33 34 35 36 37 38 39 40 41 42 43 44 45 46 47 48 49 50
000
ASUS43 KLSX 300710
RWRMO

WEATHER SUMMARY FOR MISSOURI
NATIONAL WEATHER SERVICE SPRINGFIELD MO
200 AM CDT TUE MAY 30 2017

NOTE: "FAIR" INDICATES FEW OR NO CLOUDS BELOW 12,000 FEET WITH NO
       SIGNIFICANT WEATHER AND/OR OBSTRUCTIONS TO VISIBILITY.
       CURRENT SKY AND/OR WEATHER CONDITIONS ARE NOT AVAILABLE FOR
       CHILLICOTHE AND FARMINGTON.

MOZ001>031-035>038-043-044-053-054-300800-
...NORTHERN AND WESTERN MISSOURI...

CITY           SKY/WX    TMP DP  RH WIND       PRES   REMARKS
KANSAS CTY INT CLEAR     61  41  47 N5        30.07R
KANSAS C DTWN  CLEAR     61  49  64 CALM      30.06R
LEE`S SUMMIT   CLEAR     64  43  46 CALM      30.07S
ST JOSEPH      CLEAR     53  49  86 CALM      30.06S
CHILLICOTHE      N/A     53  49  86 CALM      30.07R
KIRKSVILLE     PTCLDY    53  32  44 W5        30.04S

$$
MOZ066>068-077>081-088>096-101>105-300800-
...SOUTHWEST MISSOURI...

CITY           SKY/WX    TMP DP  RH WIND       PRES   REMARKS
SPRINGFIELD    MOCLDY    62  57  83 CALM      30.05S
JOPLIN         CLEAR     60  58  92 CALM      30.06S
BRANSON        PTCLDY    68  55  64 CALM      30.06F

$$
MOZ032>034-039>042-045>050-055>058-069>072-300800-
...CENTRAL MISSOURI...

CITY           SKY/WX    TMP DP  RH WIND       PRES   REMARKS
COLUMBIA       PTCLDY    61  53  75 NW6       30.04R
JEFFERSON CITY PTCLDY    61  55  81 NW3       30.03R
ROLLA          PTCLDY    57  53  86 CALM      30.03R
SEDALIA        PTCLDY    62  52  69 NW3       30.06R
WHITEMAN AFB   CLEAR     59  54  83 N6        30.05R
WARRENSBURG    CLEAR     61  46  59 NW3       30.06R
OSAGE BEACH    PTCLDY    57  56  96 CALM      30.05R

$$
MOZ051-052-059>065-300800-
...EAST CENTRAL MISSOURI...

CITY           SKY/WX    TMP DP  RH WIND       PRES   REMARKS
ST LOUIS INTL  MOCLDY    65  56  72 W3        30.01R
SPIRIT OF STL  PTCLDY    57  56  96 SW3       30.00S
ST CHARLES     PTCLDY    60  58  92 CALM      29.99S

$$
MOZ072>076-082>087-097>100-106>115-300800-
...SOUTH CENTRAL AND SOUTHEAST MISSOURI...

CITY           SKY/WX    TMP DP  RH WIND       PRES   REMARKS
CAPE GIRARDEAU CLEAR     62  60  93 CALM      30.01R
FARMINGTON     CLEAR     57  55  93 CALM      30.03S
POPLAR BLUFF   CLOUDY    68  61  78 CALM      30.01S
WEST PLAINS    PTCLDY    61  58  90 CALM      30.05S

$$



USA.gov is the U.S. government's official web portal to all federal, state and local government web resources and services.